CZ-6A DEB, 54608

Orbit data source: Space-Track

CZ-6A DEB, 54608 is space debris in SSO originally from a launch on Fri, 11 Nov 2022 UTC launched from the Taiyaun Space Center, China (TSC). Debris objects in space refer to the collection of defunct objects orbiting the Earth. Examples of debris include non-operational satellites, rocket bodies, and fragments generated from explosions, collisions, or faulty payload assembly.

Loading next visibility...
Identifier
54608, 2022-151NJ
Orbit
SSO
Country
Flag of CNCN / PRC
Related business
Manufacturer
SAST
Mission
Spacecraft
Bus & Motor
Unknown
Mass
Unknown
Launch date (UTC)
2022-11-11 (3 years ago)
Launch vehicle
Unknown
Launch site
Taiyaun Space Center, China (TSC)
Object type
Payload
Rocket body
Debris
Shape & HBR
Unknown shape, 0.1 m
Radar Cross Section
Small (<0.1 m²)

Expand to show TLE details & history
Last TLE update: 11 hours ago

TLE from 11 hours ago
0 CZ-6A DEB
1 54608U 22151NJ  26130.52664211  .00000441  00000-0  28151-3 0  9992
2 54608  98.8519 122.2864 0065478  98.8234 262.0357 14.07465579178542
Epoch: 2026-05-10T12:38Z
TLE epoch observation values (Epoch: 2026-05-10T12:38:21.878Z)
Latitude
0.00001°
Longitude
64.36679°
Altitude
877.83 km
Speed
7.41 km/s
True Right ascension
08h 09m 08s
True Declination
0° 00' 00"
Sunlit
Object was in daylight at epoch
Visualization orbit readout
Latitude
Unknown
Longitude
Unknown
Altitude
Unknown
Speed
Unknown
Apparent Right ascension
Unknown
Apparent Declination
Unknown
Sunlit
N/A
Visualization observer readout
Local Sidereal Time
07:23:51
Azimuth
Unknown
Elevation
Unknown
Doppler factor
Unknown
Orbital elements
Apogee altitude
912.668 km
Perigee altitude
817.811 km
Semi-major axis
7,243.377 km
Eccentricity
0.00655
Inclination
98.8519°
RAAN
122.2864°
Arg. of periapsis
98.8234°
True anomaly
261.29348°
Mean anomaly
262.0357°
Eccentric anomaly
261.6645°
Mean motion
3.52072 °/min
Orbital period
102.25 mins
BSTAR
0.00028151
Loading maneuver chart data...
Computing Atmospheric mass density...
Loading historical data...
Loading historical data...
Loading historical data...
Loading historical data...
Loading historical data...
Loading historical data...
Loading historical data...

Documentation

Showing up to 5 results
|